Regional Weather Roundup
Issued by NWS

Home | Current Version | Previous Version | Text Only | Print | Product List | Glossary Off
Versions: 1 2 3 4 5 6 7 8 9 10 11 12 13 14 15 16 17 18 19 20 21 22 23 24 25 26 27 28 29 30 31 32 33 34 35 36 37 38 39 40 41 42 43 44 45 46 47 48 49 50

000
ASUS43 KDTX 221401
RWRMI
MICHIGAN HOURLY REGIONAL WEATHER ROUNDUP
NATIONAL WEATHER SERVICE DETROIT/PONTIAC MI
900 AM EST WED NOV 22 2017

NOTE: "FAIR" INDICATES FEW OR NO CLOUDS BELOW 12,000 FEET WITH NO
SIGNIFICANT WEATHER AND/OR OBSTRUCTION TO VISIBILITY.

MIZ047>049-052>055-059>063-066>070-074>076-081>083-221500-
SOUTHEAST LOWER MICHIGAN

CITY           SKY/WX    TMP DP  RH WIND       PRES   REMARKS
ADRIAN         CLOUDY    30  18  60 N8        30.27R WCI  22
ALMA           CLOUDY    30  18  62 W5        30.28R WCI  25
ANN ARBOR      PTSUNNY   30  16  56 NW9       30.26R WCI  22
BAD AXE        CLOUDY    29  18  64 NW14      30.24R WCI  18
CARO           CLOUDY    29  23  76 W6        30.25R WCI  23
DETROIT CITY   CLOUDY    30  17  58 NW8       30.26R WCI  22
DETROIT        PTSUNNY   32  16  51 NW10      30.27R WCI  24
FLINT          CLOUDY    29  18  63 NW8       30.26R WCI  21
GROSSE ILE     SUNNY     32  16  53 NW9       30.26R WCI  24
HILLSDALE      CLOUDY    28  16  59 NW12      30.25R WCI  18
HOWELL         CLOUDY    29  20  68 NW5       30.25S WCI  24

CITY           SKY/WX    TMP DP  RH WIND       PRES   REMARKS
JACKSON        CLOUDY    29  14  53 NW6       30.26S WCI  23
LAMBERTVILLE   CLOUDY    33  20  59 N9        30.27R WCI  25
LANSING        CLOUDY    29  17  61 NW9       30.27S WCI  20
LAPEER         CLOUDY    29  19  66 NW5       30.25R WCI  24
MASON          CLOUDY    30  18  61 W7        30.26S WCI  23
MONROE         CLOUDY    32  17  53 NW12      30.27R WCI  23
MT. CLEMENS    CLOUDY    30  20  65 NW10      30.24R WCI  21
PONTIAC        PTSUNNY   28  18  66 NW8       30.24R WCI  20
PORT HOPE        N/A     30  20  66 NW16G23   30.22R WCI  19
PORT HURON     CLOUDY    30  19  64 NW8       30.24R WCI  23
TRI CITIES     CLOUDY    30  23  75 NW7       30.27R WCI  23
MIDLAND        CLOUDY    30  22  73 CALM      30.26R
TROY           CLOUDY    32  19  58 NW7       30.27R WCI  26
SAGINAW HB     CLOUDY    30  21  69 NW8       30.26R WCI  23
$$
MIZ043>046-050>051-056>058-064>065-071>073-077>080-221500-
SOUTHWEST LOWER MICHIGAN

CITY           SKY/WX    TMP DP  RH WIND       PRES   REMARKS
BATTLE CREEK   CLOUDY    29  17  61 N5        30.28R WCI  24
BENTON HARBOR  CLOUDY    31  19  61 E6        30.29S WCI  25
BIG RAPIDS     CLOUDY    28  19  70 W3        30.25R
COLDWATER      CLOUDY    30  17  58 N6        30.28R WCI  24
FREMONT        CLOUDY    29  18  62 NW5       30.27R WCI  24
HOLLAND        CLOUDY    31  19  61 E5        30.29S WCI  26
GRAND RAPIDS   CLOUDY    30  18  60 NW6       30.27S WCI  24
IONIA          CLOUDY    30  18  60 CALM      30.27S
KALAMAZOO      CLOUDY    30  14  51 NE5       30.28S WCI  25
LUDINGTON      CLOUDY    29  17  59 CALM      30.28R
MARSHALL       CLOUDY    28  15  57 CALM      30.27R
MOUNT PLEASANT CLOUDY    31  16  54 W5        30.25R WCI  26
MUSKEGON       CLOUDY    31  17  56 N7        30.29S WCI  24
SOUTH HAVEN    CLOUDY    31  19  61 E3        30.29S
$$
MIZ016>042-221500-
NORTHERN LOWER MICHIGAN

CITY           SKY/WX    TMP DP  RH WIND       PRES   REMARKS
ALPENA         PTSUNNY   25  23  92 SW5       30.22S WCI  19
BEAVER ISLAND  CLOUDY    30  23  75 W6        30.24R WCI  24
BELLAIRE       CLOUDY    27  24  90 CALM      30.25R
CADILLAC       CLOUDY    25  20  79 W5        30.21R WCI  20
CHARLEVOIX     CLOUDY    30  17  57 NW9       30.26R WCI  22
FRANKFORT      CLOUDY    31  19  61 NW3       30.26R
GAYLORD        CLOUDY    22  19  89 S3        30.19R
GRAYLING       CLOUDY    25  19  78 SW3       30.21S
HARBOR SPRINGS CLOUDY    28  17  63 W3        30.23R
HOUGHTON LAKE  LGT SNOW  24  20  84 NW6       30.23R FOG     WCI  17
MANISTEE       CLOUDY    29  19  66 SW3       30.26R
OSCODA         CLOUDY    25  20  79 NW3       30.24R
PELLSTON       MOCLDY    26  18  71 CALM      30.23R
ROGERS CITY    CLOUDY    26  21  82 W7        30.22S WCI  18
TRAVERSE CITY  CLOUDY    29  18  63 W7        30.24R WCI  22
$$
MIZ007>008-015-221500-
EASTERN UPPER MICHIGAN

CITY           SKY/WX    TMP DP  RH WIND       PRES   REMARKS
KINROSS        FLURRIES  23  21  92 CALM      30.19R
MACKINAC ISLAN MOCLDY    29  21  72 W14       30.20R WCI  18
NEWBERRY       CLOUDY    23  22  96 SW7       30.20R WCI  15
S. S. MARIE    LGT SNOW  22  19  89 E5        30.19R FOG     WCI  16
$$
MIZ004>006-011>014-085-221500-
CENTRAL UPPER MICHIGAN

CITY           SKY/WX    TMP DP  RH WIND       PRES   REMARKS
MANISTIQUE     CLOUDY    24  16  70 W8        30.24R WCI  15
ESCANABA       CLOUDY    25  16  68 NW12      30.27R WCI  14
MENOMINEE      CLEAR     24  15  68 W6        30.30R WCI  17
SAWYER-GWINN   CLOUDY    21  16  79 SW7       30.22R WCI  13
$$
MIZ001>003-009>011-084-221500-
WESTERN UPPER MICHIGAN

CITY           SKY/WX    TMP DP  RH WIND       PRES   REMARKS
IRON MOUNTAIN  CLOUDY    22  14  71 W3        30.24R
HOUGHTON       CLOUDY    25  17  72 W9        30.18S WCI  15
IRONWOOD       CLOUDY    14  10  84 SW9       30.24S WCI   2
$$

ABBREVIATIONS USED IN REMARKS
   TC - TEMPERATURE IN CELSIUS
  WCI - WIND CHILL INDEX
   HX - HEAT INDEX
  VSB - VISIBILITY




USA.gov is the U.S. government's official web portal to all federal, state and local government web resources and services.